Location: Unspecified
(47.9110°N, 14.3980°E)
Time: 05:32:16
(UTC+00:00)

Cosmos 2219 Rocket - Pass Details

Date: 06 August 2020
Orbit: 826 x 848 km, 71.0° (Epoch: 19 September)

Event Time Altitude Azimuth Distance (km) Brightness Sun altitude
Rises 22:19:41 0° 336° (NNW) 3,414 6.7 -24.8°
Reaches altitude 10° 22:22:22 10° 345° (NNW) 2,478 5.7 -24.9°
Maximum altitude 22:27:33 35° 51° (NE) 1,337 3.4 -25.1°
Enters shadow 22:29:59 25° 95° (E) 1,654 3.5 -25.2°
